Location: Béaulencourt
(50.0796°N, 2.8795°E)
Time: 03:46:40
(UTC+00:00)

ARIANE 6 FM1 Upper Stage - Pass Details

Date: 19 March 2026
Orbit: 525 x 604 km, 62.0° (Epoch: 17 April)

Event Time Altitude Azimuth Distance (km) Brightness Sun altitude
Exits shadow 02:46:02 33° 55° (NE) 912 4.2 -28.8°
Drops below altitude 10° 02:48:21 10° 49° (NE) 1,791 6.2 -28.5°
Sets 02:50:32 0° 47° (NE) 2,678 7.4 -28.2°
